2015-12-22 00:02:02 r, 16.80m,0000000016Hz,0000028752c,0000000.062s, 006.4C,00002191
2015-12-22 00:12:02 r, 16.85m,0000000015Hz,0000030197c,0000000.066s, 006.4C,00002191
2015-12-22 00:22:01 r, 16.83m,0000000016Hz,0000029631c,0000000.064s, 006.4C,00002191
2015-12-22 00:32:01 r, 16.82m,0000000016Hz,0000029369c,0000000.064s, 006.4C,00002191
2015-12-22 00:42:01 r, 17.00m,0000000013Hz,0000034589c,0000000.075s, 006.7C,00002191
2015-12-22 00:52:02 r, 17.08m,0000000012Hz,0000037251c,0000000.081s, 006.7C,00002191
2015-12-22 01:02:01 r, 17.01m,0000000013Hz,0000035021c,0000000.076s, 006.7C,00002191
2015-12-22 01:12:04 r, 17.01m,0000000013Hz,0000034858c,0000000.076s, 006.7C,00002191
2015-12-22 01:22:01 r, 17.10m,0000000012Hz,0000038065c,0000000.083s, 006.7C,00002191
2015-12-22 01:32:01 r, 17.16m,0000000012Hz,0000040208c,0000000.087s, 007.0C,00002191
2015-12-22 01:42:01 r, 17.24m,0000000010Hz,0000043231c,0000000.094s, 007.0C,00002191
2015-12-22 01:52:01 r, 17.37m,0000000009Hz,0000048704c,0000000.106s, 007.0C,00002191
2015-12-22 02:02:01 r, 17.34m,0000000010Hz,0000047204c,0000000.102s, 006.7C,00002191
2015-12-22 02:12:01 r, 17.43m,0000000008Hz,0000051270c,0000000.111s, 006.7C,00002191
2015-12-22 02:22:01 r, 17.49m,0000000008Hz,0000054142c,0000000.117s, 006.7C,00002191
2015-12-22 02:32:01 r, 17.64m,0000000008Hz,0000062562c,0000000.136s, 006.7C,00002191
2015-12-22 02:42:01 r, 17.68m,0000000007Hz,0000065004c,0000000.141s, 006.7C,00002191
2015-12-22 02:52:02 r, 17.76m,0000000006Hz,0000069954c,0000000.152s, 006.7C,00002191
2015-12-22 03:02:01 r, 17.85m,0000000006Hz,0000075835c,0000000.165s, 006.4C,00002191
2015-12-22 03:12:01 r, 17.94m,0000000005Hz,0000082551c,0000000.179s, 006.4C,00002191
2015-12-22 03:22:01 r, 17.95m,0000000006Hz,0000083275c,0000000.181s, 006.4C,00002191
2015-12-22 03:32:01 r, 18.07m,0000000005Hz,0000092161c,0000000.200s, 006.4C,00002191
2015-12-22 03:42:02 r, 18.23m,0000000005Hz,0000107426c,0000000.233s, 006.4C,00002191
2015-12-22 03:52:01 r, 18.37m,0000000003Hz,0000121887c,0000000.265s, 006.7C,00002191
2015-12-22 04:02:02 r, 18.46m,0000000004Hz,0000132553c,0000000.288s, 006.4C,00002191
2015-12-22 04:12:01 r, 18.42m,0000000004Hz,0000127576c,0000000.277s, 006.4C,00002191
2015-12-22 04:22:02 r, 18.40m,0000000003Hz,0000125890c,0000000.273s, 006.4C,00002191
2015-12-22 04:32:01 r, 18.51m,0000000004Hz,0000139207c,0000000.302s, 006.4C,00002191
2015-12-22 04:42:01 r, 18.42m,0000000004Hz,0000128361c,0000000.279s, 006.4C,00002191
2015-12-22 04:52:01 r, 18.41m,0000000003Hz,0000126567c,0000000.275s, 006.7C,00002191
2015-12-22 05:02:01 r, 18.47m,0000000004Hz,0000134494c,0000000.292s, 006.7C,00002191
2015-12-22 05:12:02 r, 18.53m,0000000003Hz,0000141920c,0000000.308s, 006.7C,00002191
2015-12-22 05:22:01 r, 18.75m,0000000003Hz,0000173401c,0000000.376s, 006.7C,00002191
2015-12-22 05:32:01 r, 18.53m,0000000003Hz,0000142931c,0000000.310s, 006.7C,00002191
2015-12-22 05:42:01 r, 18.37m,0000000004Hz,0000122804c,0000000.267s, 006.7C,00002191
2015-12-22 05:52:01 r, 18.49m,0000000004Hz,0000136433c,0000000.296s, 006.7C,00002191
2015-12-22 06:02:01 r, 18.45m,0000000004Hz,0000131562c,0000000.286s, 007.0C,00002191
2015-12-22 06:12:01 r, 18.39m,0000000004Hz,0000124904c,0000000.271s, 007.0C,00002191
2015-12-22 06:22:01 r, 18.39m,0000000004Hz,0000124011c,0000000.269s, 006.7C,00002191
2015-12-22 06:32:01 r, 18.38m,0000000003Hz,0000123616c,0000000.268s, 007.0C,00002191
2015-12-22 06:42:01 r, 18.38m,0000000004Hz,0000122932c,0000000.267s, 007.0C,00002191
2015-12-22 06:52:01 r, 18.00m,0000000005Hz,0000087483c,0000000.190s, 007.0C,00002191
2015-12-22 07:02:01 r, 17.81m,0000000007Hz,0000072880c,0000000.158s, 007.0C,00002191
2015-12-22 07:12:02 r, 17.56m,0000000008Hz,0000057674c,0000000.125s, 007.4C,00002191
2015-12-22 07:22:01 r, 16.85m,0000000015Hz,0000030201c,0000000.066s, 007.4C,00002191
2015-12-22 07:32:01 r, 15.50m,0000000052Hz,0000008732c,0000000.019s, 007.4C,00002191
2015-12-22 07:42:01 r, 13.82m,0000000251Hz,0000000000c,0000000.000s, 007.7C,00002191
2015-12-22 07:52:01 r, 11.92m,0000001432Hz,0000000000c,0000000.000s, 007.7C,00002191
2015-12-22 08:02:01 r, 10.08m,0000007895Hz,0000000000c,0000000.000s, 007.7C,00002191
2015-12-22 08:12:02 r, 08.49m,0000033835Hz,0000000000c,0000000.000s, 007.7C,00002191
2015-12-22 08:22:01 r, 07.52m,0000083242Hz,0000000000c,0000000.000s, 007.7C,00002191
2015-12-22 08:32:01 r, 06.69m,0000178158Hz,0000000000c,0000000.000s, 007.7C,00002191
2015-12-22 08:42:04 r, 06.14m,0000296543Hz,0000000000c,0000000.000s, 007.7C,00002191
2015-12-22 08:52:01 r, 00.00m,0000474630Hz,0000000000c,0000000.000s, 008.0C,00002191
2015-12-22 09:02:01 r, 00.00m,0000597344Hz,0000000000c,0000000.000s, 008.0C,00002191
2015-12-22 09:12:01 r, 00.00m,0000597232Hz,0000000000c,0000000.000s, 008.7C,00002191
2015-12-22 09:22:01 r, 00.00m,0000597202Hz,0000000000c,0000000.000s, 008.7C,00002191
2015-12-22 09:32:01 r, 00.00m,0000597140Hz,0000000000c,0000000.000s, 009.3C,00002191
2015-12-22 09:42:01 r, 00.00m,0000597096Hz,0000000000c,0000000.000s, 009.3C,00002191
2015-12-22 09:52:01 r, 00.00m,0000597120Hz,0000000000c,0000000.000s, 009.6C,00002191
2015-12-22 10:02:01 r, 00.00m,0000597011Hz,0000000000c,0000000.000s, 010.3C,00002191
2015-12-22 10:12:02 r, 00.00m,0000597029Hz,0000000000c,0000000.000s, 010.6C,00002191
2015-12-22 10:22:01 r, 00.00m,0000596923Hz,0000000000c,0000000.000s, 010.9C,00002191
2015-12-22 10:32:01 r, 00.00m,0000596875Hz,0000000000c,0000000.000s, 011.2C,00002191
2015-12-22 10:42:03 r, 00.00m,0000596896Hz,0000000000c,0000000.000s, 011.6C,00002191
2015-12-22 10:52:01 r, 00.00m,0000596957Hz,0000000000c,0000000.000s, 011.9C,00002191
2015-12-22 11:02:01 r, 00.00m,0000596734Hz,0000000000c,0000000.000s, 012.2C,00002191
2015-12-22 11:12:02 r, 00.00m,0000596734Hz,0000000000c,0000000.000s, 012.8C,00002191
2015-12-22 11:22:01 r, 00.00m,0000596715Hz,0000000000c,0000000.000s, 013.2C,00002191
2015-12-22 11:32:01 r, 00.00m,0000596622Hz,0000000000c,0000000.000s, 013.8C,00002191
2015-12-22 11:42:01 r, 00.00m,0000596630Hz,0000000000c,0000000.000s, 013.8C,00002191
2015-12-22 11:52:01 r, 00.00m,0000596574Hz,0000000000c,0000000.000s, 014.1C,00002191
2015-12-22 12:02:01 r, 00.00m,0000596718Hz,0000000000c,0000000.000s, 013.8C,00002191
2015-12-22 12:12:01 r, 00.00m,0000596712Hz,0000000000c,0000000.000s, 013.8C,00002191
2015-12-22 12:22:01 r, 00.00m,0000596633Hz,0000000000c,0000000.000s, 013.8C,00002191
2015-12-22 12:32:01 r, 00.00m,0000596627Hz,0000000000c,0000000.000s, 013.8C,00002191
2015-12-22 12:42:01 r, 00.00m,0000596651Hz,0000000000c,0000000.000s, 014.1C,00002191
2015-12-22 12:52:01 r, 00.00m,0000596680Hz,0000000000c,0000000.000s, 013.8C,00002191
2015-12-22 13:02:01 r, 00.00m,0000596691Hz,0000000000c,0000000.000s, 013.5C,00002191
2015-12-22 13:12:03 r, 00.00m,0000596645Hz,0000000000c,0000000.000s, 013.5C,00002191
2015-12-22 13:22:01 r, 00.00m,0000596724Hz,0000000000c,0000000.000s, 013.5C,00002191
2015-12-22 13:32:01 r, 00.00m,0000596694Hz,0000000000c,0000000.000s, 013.2C,00002191
2015-12-22 13:42:01 r, 00.00m,0000596713Hz,0000000000c,0000000.000s, 012.8C,00002191
2015-12-22 13:52:01 r, 00.00m,0000596669Hz,0000000000c,0000000.000s, 012.8C,00002191
2015-12-22 14:02:01 r, 00.00m,0000596847Hz,0000000000c,0000000.000s, 012.2C,00002191
2015-12-22 14:12:03 r, 00.00m,0000596795Hz,0000000000c,0000000.000s, 012.2C,00002191
2015-12-22 14:22:01 r, 00.00m,0000596890Hz,0000000000c,0000000.000s, 012.2C,00002191
2015-12-22 14:32:01 r, 00.00m,0000596844Hz,0000000000c,0000000.000s, 011.9C,00002191
2015-12-22 14:42:02 r, 00.00m,0000596802Hz,0000000000c,0000000.000s, 011.6C,00002191
2015-12-22 14:52:01 r, 00.00m,0000596889Hz,0000000000c,0000000.000s, 011.6C,00002191
2015-12-22 15:02:01 r, 00.00m,0000596875Hz,0000000000c,0000000.000s, 011.2C,00002191
2015-12-22 15:12:03 r, 00.00m,0000596944Hz,0000000000c,0000000.000s, 011.2C,00002191
2015-12-22 15:22:01 r, 00.00m,0000596959Hz,0000000000c,0000000.000s, 011.2C,00002191
2015-12-22 15:32:01 r, 00.00m,0000596888Hz,0000000000c,0000000.000s, 010.9C,00002191
2015-12-22 15:42:02 r, 00.00m,0000596979Hz,0000000000c,0000000.000s, 010.9C,00002191
2015-12-22 15:52:01 r, 00.00m,0000559955Hz,0000000000c,0000000.000s, 010.9C,00002191
2015-12-22 16:02:01 r, 05.82m,0000398494Hz,0000000000c,0000000.000s, 010.6C,00002191
2015-12-22 16:12:01 r, 06.17m,0000289488Hz,0000000000c,0000000.000s, 010.6C,00002191
2015-12-22 16:22:01 r, 06.74m,0000170893Hz,0000000000c,0000000.000s, 010.3C,00002191
2015-12-22 16:32:01 r, 07.51m,0000084096Hz,0000000000c,0000000.000s, 010.6C,00002191
2015-12-22 16:42:01 r, 08.58m,0000031367Hz,0000000000c,0000000.000s, 010.3C,00002191
2015-12-22 16:52:03 r, 09.96m,0000008804Hz,0000000000c,0000000.000s, 010.3C,00002191
2015-12-22 17:02:01 r, 11.70m,0000001765Hz,0000000000c,0000000.000s, 010.3C,00002191
2015-12-22 17:12:01 r, 13.55m,0000000320Hz,0000000000c,0000000.000s, 010.3C,00002191
2015-12-22 17:22:01 r, 15.18m,0000000072Hz,0000006489c,0000000.014s, 010.3C,00002191
2015-12-22 17:32:01 r, 16.26m,0000000026Hz,0000017431c,0000000.038s, 009.9C,00002191
2015-12-22 17:42:01 r, 16.64m,0000000018Hz,0000024864c,0000000.054s, 010.3C,00002191
2015-12-22 17:52:01 r, 16.61m,0000000019Hz,0000024148c,0000000.052s, 010.3C,00002191
2015-12-22 18:02:01 r, 16.52m,0000000021Hz,0000022180c,0000000.048s, 010.3C,00002191
2015-12-22 18:12:01 r, 16.48m,0000000021Hz,0000021447c,0000000.047s, 010.3C,00002191
2015-12-22 18:22:01 r, 16.44m,0000000023Hz,0000020645c,0000000.045s, 010.3C,00002191
2015-12-22 18:32:01 r, 16.42m,0000000023Hz,0000020251c,0000000.044s, 010.3C,00002191
2015-12-22 18:42:01 r, 16.54m,0000000020Hz,0000022538c,0000000.049s, 009.9C,00002191
2015-12-22 18:52:01 r, 16.56m,0000000020Hz,0000022951c,0000000.050s, 009.9C,00002191
2015-12-22 19:02:01 r, 16.55m,0000000020Hz,0000022893c,0000000.050s, 009.9C,00002191
2015-12-22 19:12:01 r, 16.55m,0000000021Hz,0000022818c,0000000.050s, 009.9C,00002191
2015-12-22 19:22:01 r, 16.45m,0000000022Hz,0000020898c,0000000.045s, 009.9C,00002191
2015-12-22 19:32:01 r, 16.29m,0000000026Hz,0000018043c,0000000.039s, 009.9C,00002191
2015-12-22 19:42:01 r, 16.23m,0000000027Hz,0000017142c,0000000.037s, 009.9C,00002191
2015-12-22 19:52:01 r, 16.22m,0000000027Hz,0000016770c,0000000.036s, 009.9C,00002191
2015-12-22 20:02:01 r, 16.24m,0000000027Hz,0000017246c,0000000.037s, 009.9C,00002191
2015-12-22 20:12:01 r, 16.20m,0000000028Hz,0000016617c,0000000.036s, 009.9C,00002191
2015-12-22 20:22:01 r, 16.17m,0000000028Hz,0000016063c,0000000.035s, 009.9C,00002191
2015-12-22 20:32:01 r, 16.11m,0000000030Hz,0000015280c,0000000.033s, 009.9C,00002191
2015-12-22 20:42:01 r, 16.11m,0000000030Hz,0000015287c,0000000.033s, 009.9C,00002191
2015-12-22 20:52:01 r, 16.19m,0000000028Hz,0000016368c,0000000.036s, 009.9C,00002191
2015-12-22 21:02:01 r, 16.19m,0000000027Hz,0000016443c,0000000.036s, 009.9C,00002191
2015-12-22 21:12:01 r, 16.21m,0000000027Hz,0000016670c,0000000.036s, 009.9C,00002191
2015-12-22 21:22:03 r, 16.16m,0000000028Hz,0000015978c,0000000.035s, 009.9C,00002191
2015-12-22 21:32:01 r, 16.15m,0000000029Hz,0000015765c,0000000.034s, 009.9C,00002191
2015-12-22 21:42:01 r, 16.14m,0000000029Hz,0000015729c,0000000.034s, 009.9C,00002191
2015-12-22 21:52:02 r, 16.12m,0000000029Hz,0000015471c,0000000.034s, 009.9C,00002191
2015-12-22 22:02:01 r, 16.17m,0000000028Hz,0000016156c,0000000.035s, 010.3C,00002191
2015-12-22 22:12:01 r, 16.10m,0000000030Hz,0000015046c,0000000.033s, 009.9C,00002191
2015-12-22 22:22:01 r, 16.03m,0000000032Hz,0000014120c,0000000.031s, 009.9C,00002191
2015-12-22 22:32:01 r, 15.99m,0000000033Hz,0000013608c,0000000.030s, 009.9C,00002191
2015-12-22 22:42:01 r, 16.04m,0000000032Hz,0000014215c,0000000.031s, 009.9C,00002191
2015-12-22 22:52:03 r, 16.10m,0000000031Hz,0000015146c,0000000.033s, 009.9C,00002191
2015-12-22 23:02:01 r, 16.06m,0000000032Hz,0000014487c,0000000.031s, 009.9C,00002191
2015-12-22 23:12:01 r, 16.13m,0000000029Hz,0000015570c,0000000.034s, 009.9C,00002191
2015-12-22 23:22:01 r, 16.11m,0000000031Hz,0000015176c,0000000.033s, 009.9C,00002191
2015-12-22 23:32:01 r, 16.07m,0000000032Hz,0000014701c,0000000.032s, 009.9C,00002191
2015-12-22 23:42:01 r, 16.08m,0000000031Hz,0000014843c,0000000.032s, 010.3C,00002191
2015-12-22 23:52:02 r, 16.34m,0000000025Hz,0000018903c,0000000.041s, 010.3C,00002191
